281P/MOSS (2023)

Japanese version
Home page
Updated on November 4, 2020

---------------------------------------------------------------------

* Profile

* Orbital Elements

Epoch 2023 Jan. 16.0 TT = JDT 2459960.5
T 2023 Feb. 1.57125 TT                                  MPC
q   4.0344712            (2000.0)            P               Q
n   0.09149566     Peri.   26.65547     -0.40258792     -0.91168708
a   4.8775574      Node    87.17967     +0.82448447     -0.40013912
e   0.1728501      Incl.    4.71824     +0.39767867     -0.09335607
P  10.8
From 91 observations 2000 Nov. 17-2013 Mar. 15, mean residual 0".6.

* Magnitudes Graph

        m1 = 11.0 + 5 log d + 10.0 log r

---------------------------------------------------------------------

The orbital elements are published on M.P.E.C. 2013-F20.
The magnitudes graphs are made with Comet for Windows.

---------------------------------------------------------------------

Copyright(C) Seiichi Yoshida (comet@aerith.net). All rights reserved.